DW8462 Weather Reports


time (UTC)temp
C
wind
direction
speed
KPH
gust
KPH
rain 1hr
cm
rain 24hr
cm
rain mn
cm
humidity
%
barometer
mb
20260504034545 10 232 0.0 0.0 0.00 0.00 0.00 80 1007.9
20260504033049 10 232 0.0 0.0 0.00 0.00 0.00 81 1008.0
20260504031537 10 232 0.0 0.0 0.00 0.00 0.00 80 1008.1
20260504030036 10 232 0.0 0.0 0.00 0.00 0.00 77 1008.1
20260504024533 11 232 0.0 0.0 0.00 0.00 0.00 76 1008.1
20260504023033 11 232 0.0 0.0 0.00 0.00 0.00 74 1008.1
20260504021536 12 232 0.0 0.0 0.00 0.00 0.00 69 1008.0
20260504020035 13 232 0.0 0.0 0.00 0.00 0.00 68 1008.0
20260504014530 13 234 0.0 0.0 0.00 0.00 0.00 65 1007.8
20260504013036 14 235 0.0 0.0 0.00 0.00 0.00 63 1007.8
20260504011529 14 254 0.0 0.0 0.00 0.00 0.00 64 1007.8
20260504010036 15 254 0.0 0.0 0.00 0.00 0.00 62 1007.8
20260504004526 16 254 0.0 0.0 0.00 0.00 0.00 58 1007.8
20260504003025 17 254 0.0 0.0 0.00 0.00 0.00 54 1007.9
20260504001525 18 360 0.0 0.0 0.00 0.00 0.00 51 1008.0
20260504000024 18 182 0.0 0.0 0.00 0.00 0.00 50 1007.8
20260503234521 19 360 0.0 0.0 0.00 0.00 0.00 49 1007.9
20260503233019 19 360 0.0 0.0 0.00 0.00 0.00 50 1008.1
20260503231517 18 177 0.0 0.0 0.00 0.00 0.00 50 1008.1
20260503230016 18 200 0.0 0.0 0.00 0.00 0.00 49 1008.3
20260503224511 18 223 0.0 0.0 0.00 0.00 0.00 49 1008.4
20260503223010 18 360 0.0 0.0 0.00 0.00 0.00 49 1008.6
20260503221507 18 199 0.0 0.0 0.00 0.00 0.00 50 1008.7
20260503220008 17 157 0.0 0.0 0.00 0.00 0.00 50 1008.8
20260503214504 17 186 0.0 0.0 0.00 0.00 0.00 51 1008.8
20260503213005 17 165 0.0 0.0 0.00 0.00 0.00 51 1008.8
20260503211610 18 183 0.0 0.0 0.00 0.00 0.00 47 1009.2
20260503210059 17 360 0.0 0.0 0.00 0.00 0.00 49 1009.4
20260503204557 18 146 0.0 0.0 0.00 0.00 0.00 47 1009.5
20260503203052 17 181 0.0 0.0 0.00 0.00 0.00 45 1009.8
20260503201550 17 178 0.0 0.0 0.00 0.00 0.00 47 1010.1
20260503200049 17 229 0.0 0.0 0.00 0.00 0.00 46 1010.4
20260503194525 17 172 0.0 0.0 0.00 0.00 0.00 47 1010.6
20260503193016 17 360 0.0 0.0 0.00 0.00 0.00 45 1010.8
20260503191515 16 223 0.0 0.0 0.00 0.00 0.00 46 1010.9
20260503190018 16 360 0.0 0.0 0.00 0.00 0.00 48 1011.3
20260503184507 16 239 0.0 0.0 0.00 0.00 0.00 48 1011.6
20260503183009 16 196 0.0 0.0 0.00 0.00 0.00 49 1012.0
20260503181623 16 225 0.0 0.0 0.00 0.00 0.00 51 1012.3
20260503180026 15 244 0.0 0.0 0.00 0.00 0.00 53 1012.8
20260503174522 15 182 0.0 0.0 0.00 0.00 0.00 59 1013.6
20260503173037 13 218 0.0 0.0 0.00 0.00 0.00 61 1014.0
20260503171514 13 180 0.0 0.0 0.00 0.00 0.00 61 1014.4
20260503100120 3 296 0.0 0.0 0.00 0.00 0.00 85 1016.5
20260503081520 2 302 0.0 0.0 0.00 0.00 0.00 87 1016.7
20260503071546 2 302 0.0 0.0 0.00 0.00 0.00 86 1016.9
20260503054532 3 302 0.0 0.0 0.00 0.00 0.00 85 1017.6
20260503053037 3 302 0.0 0.0 0.00 0.00 0.00 84 1017.7
20260503051524 3 302 0.0 0.0 0.00 0.00 0.00 84 1017.8
20260503050022 3 302 0.0 0.0 0.00 0.00 0.00 83 1017.8
20260503044553 3 302 0.0 0.0 0.00 0.00 0.00 82 1017.8
20260503043021 4 302 0.0 0.0 0.00 0.00 0.00 80 1017.8
20260503041519 4 302 0.0 0.0 0.00 0.00 0.00 79 1017.9
20260503040019 4 302 0.0 0.0 0.00 0.00 0.00 78 1017.9